Find Local Weather

World > North America > United States > Arizona

Cave Creek, Arizona Regional Weather

Lat: 33.83N, Lon: 111.97W
Wx Zone: AZZ543
Feedback
Expires:201810192200;;436681
ASUS45 KPSR 192110
RWRAZ 

ARIZONA HOURLY REGIONAL WEATHER ROUNDUP
NATIONAL WEATHER SERVICE PHOENIX AZ
200 PM MST FRI OCT 19 2018

NOTE: FAIR INDICATES FEW OR NO CLOUDS BELOW 12,000 FEET WITH NO
SIGNIFICANT WEATHER AND/OR OBSTRUCTIONS TO VISIBILITY.


AZZ540-542>544-546-548-192200-
GREATER PHOENIX AREA
  
CITY           SKY/WX    TMP DP  RH WIND       PRES   REMARKS
PHOENIX        MOSUNNY   84  48  28 SE10      29.96F                  
BUCKEYE        SUNNY     82  41  23 E8        29.97F                  
GLENDALE       SUNNY     82  43  24 E6        29.99F                  
LUKE AFB       SUNNY     83  42  22 E6        29.96F                  
DEER VALLEY    SUNNY     82  42  24 E8        29.98F                  
SCOTTSDALE     SUNNY     82  42  24 VRB6      30.00F                  
MESA-FALCON    SUNNY     83  46  27 NE8       29.97F                  
MESA-GATEWAY   SUNNY     82  50  32 E6        29.98F                  
CHANDLER       SUNNY     82  48  30 E12       29.97F                  
$$


SKY/WX - Weather  TMP - Temperature  DP - Dew Point  RH - Relative Humidity
WIND - Wind Direction/Speed PRES - Barometric Pressure